Change the Weather History Date:

Sunday, September 4, 2011

  Actual Average Record
Temperature  
Mean Temperature 74 °F 63 °F  
Max Temperature 83 °F 74 °F 95 °F (1953)
Min Temperature 64 °F 51 °F 36 °F (1987)
Degree Days  
Heating Degree Days 0 4  
Month to date heating degree days 0 15  
Since 1 July heating degree days 10 90  
Cooling Degree Days 9 2  
Month to date cooling degree days 32 8  
Year to date cooling degree days 539 344  
Growing Degree Days 23 (Base 50)    
Moisture  
Dew Point 67 °F    
Average Humidity 79    
Maximum Humidity 93    
Minimum Humidity 65    
Precipitation  
Precipitation 0.49 in 0.12 in 1.74 in (1966)
Month to date precipitation 0.50 0.47  
Year to date precipitation 23.93 23.01  
Sea Level Pressure  
Sea Level Pressure 29.76 in    
Wind  
Wind Speed 8 mph (SW)    
Max Wind Speed 23 mph    
Max Gust Speed 30 mph    
Visibility 4 miles    
Events Fog , Rain , Thunderstorm    
T = Trace of Precipitation, MM = Missing Value Source: NWS Daily Summary

Daily Weather History Graph

Daily Weather History Graph

Search for Another Location

Airport or City:

Trip Planner

Search our weather history database for the weather conditions in past years. The results will help you decide how hot, cold, wet, or windy it might be!

Date:

Astronomy

Sep. 04, 2011 Rise Set
Actual Time 6:24 AM EDT 7:31 PM EDT
Civil Twilight 5:54 AM EDT 8:01 PM EDT
Nautical Twilight 5:18 AM EDT 8:37 PM EDT
Astronomical Twilight 4:40 AM EDT 9:15 PM EDT
Moon 2:28 PM EDT 11:27 PM EDT
Length of Visible Light 14h 06m
Length of Day
13h 06m
Waxing Crescent, 49% of the Moon is Illuminated
Sep 4
Waxing Crescent
Sep 4
First Quarter
Sep 12
Full
Sep 20
Last Quarter
Sep 27
New

Hourly Weather History & Observations

Time (EDT) Temp. Heat Index Dew Point Humidity Pressure Visibility Wind Dir Wind Speed Gust Speed Precip Events Conditions
12:53 AM 70.0 °F - 66.0 °F 87% 29.82 in 9.0 mi Calm Calm - N/A   Clear
1:49 AM 66.2 °F - 64.4 °F 94% 29.81 in 1.8 mi Calm Calm - N/A   Clear
1:53 AM 66.9 °F - 64.9 °F 93% 29.80 in 1.5 mi Calm Calm - N/A   Clear
2:05 AM 66.2 °F - 64.4 °F 94% 29.80 in 0.8 mi Calm Calm - N/A   Clear
2:15 AM 66.2 °F - 64.4 °F 94% 29.80 in 1.2 mi Calm Calm - N/A   Clear
2:22 AM 66.2 °F - 64.4 °F 94% 29.80 in 0.5 mi Calm Calm - N/A Fog Fog
2:33 AM 66.2 °F - 64.4 °F 94% 29.80 in 2.0 mi Calm Calm - N/A   Partly Cloudy
2:51 AM 66.2 °F - 64.4 °F 94% 29.80 in 4.0 mi Calm Calm - N/A   Partly Cloudy
2:53 AM 66.0 °F - 64.9 °F 96% 29.79 in 4.0 mi Calm Calm - N/A   Clear
2:58 AM 66.2 °F - 64.4 °F 94% 29.80 in 1.2 mi Calm Calm - N/A   Clear
3:01 AM 66.2 °F - 64.4 °F 94% 29.80 in 0.5 mi Calm Calm - N/A Fog Fog
3:10 AM 64.4 °F - 62.6 °F 94% 29.79 in 1.5 mi Calm Calm - N/A   Partly Cloudy
3:12 AM 66.2 °F - 64.4 °F 94% 29.79 in 3.0 mi Calm Calm - N/A   Partly Cloudy
3:31 AM 64.4 °F - 62.6 °F 94% 29.77 in 5.0 mi Calm Calm - N/A   Mostly Cloudy
3:37 AM 66.2 °F - 64.4 °F 94% 29.76 in 2.5 mi Calm Calm - N/A   Scattered Clouds
3:42 AM 66.2 °F - 64.4 °F 94% 29.77 in 1.2 mi Calm Calm - N/A   Scattered Clouds
3:49 AM 66.2 °F - 64.4 °F 94% 29.77 in 2.0 mi Calm Calm - N/A   Partly Cloudy
3:50 AM 66.9 °F - 64.9 °F 93% 29.76 in 2.5 mi Calm Calm - N/A   Partly Cloudy
4:27 AM 66.2 °F - 64.4 °F 94% 29.76 in 4.0 mi Calm Calm - N/A   Clear
4:53 AM 66.9 °F - 64.9 °F 93% 29.76 in 5.0 mi Calm Calm - N/A   Partly Cloudy
5:07 AM 66.2 °F - 64.4 °F 94% 29.76 in 2.5 mi Calm Calm - N/A   Partly Cloudy
5:16 AM 66.2 °F - 64.4 °F 94% 29.76 in 4.0 mi Calm Calm - N/A   Clear
5:53 AM 66.0 °F - 64.9 °F 96% 29.76 in 5.0 mi Calm Calm - N/A   Partly Cloudy
6:46 AM 68.0 °F - 64.4 °F 88% 29.77 in 2.5 mi Calm Calm - N/A   Clear
6:53 AM 68.0 °F - 66.0 °F 93% 29.77 in 3.0 mi Calm Calm - N/A   Clear
7:02 AM 68.0 °F - 66.2 °F 94% 29.76 in 2.5 mi Calm Calm - N/A   Clear
7:09 AM 68.0 °F - 66.2 °F 94% 29.75 in 3.0 mi East 3.5 mph - N/A   Clear
7:16 AM 69.8 °F - 66.2 °F 88% 29.76 in 2.5 mi Calm Calm - N/A   Clear
7:36 AM 69.8 °F - 68.0 °F 94% 29.74 in 3.0 mi ENE 3.5 mph - N/A   Clear
7:53 AM 71.1 °F - 68.0 °F 90% 29.74 in 3.0 mi ENE 3.5 mph - N/A   Scattered Clouds
8:41 AM 75.2 °F - 69.8 °F 83% 29.77 in 5.0 mi WSW 11.5 mph 23.0 mph 0.00 in Rain , Thunderstorm Light Rain
8:53 AM 73.9 °F - 69.1 °F 85% 29.77 in 7.0 mi West 11.5 mph 25.3 mph 0.00 in Thunderstorm Overcast
9:18 AM 73.4 °F - 68.0 °F 83% 29.75 in 5.0 mi SW 10.4 mph - 0.01 in Rain , Thunderstorm Light Rain
9:27 AM 73.4 °F - 69.8 °F 88% 29.74 in 4.0 mi SSW 6.9 mph - 0.02 in Rain , Thunderstorm Light Rain
9:32 AM 73.4 °F - 69.8 °F 88% 29.74 in 5.0 mi SSW 8.1 mph - 0.02 in Rain Light Rain
9:53 AM 75.0 °F - 71.1 °F 87% 29.74 in 5.0 mi SSW 9.2 mph - 0.02 in   Clear
10:53 AM 79.0 °F - 69.1 °F 72% 29.74 in 7.0 mi SSW 9.2 mph 21.9 mph N/A   Clear
11:53 AM 78.1 °F - 66.0 °F 66% 29.74 in 10.0 mi SW 16.1 mph 26.5 mph N/A   Partly Cloudy
12:53 PM 80.1 °F 82.7 °F 68.0 °F 67% 29.73 in 10.0 mi SW 9.2 mph - N/A   Clear
1:53 PM 81.0 °F 83.8 °F 68.0 °F 65% 29.73 in 10.0 mi SW 18.4 mph 27.6 mph N/A   Scattered Clouds
2:53 PM 80.1 °F 82.9 °F 69.1 °F 69% 29.73 in 10.0 mi SW 13.8 mph 21.9 mph N/A   Clear
3:53 PM 82.0 °F 85.5 °F 69.1 °F 65% 29.70 in 10.0 mi SSW 21.9 mph 26.5 mph N/A   Partly Cloudy
4:53 PM 79.0 °F - 68.0 °F 69% 29.69 in 9.0 mi SSW 18.4 mph 26.5 mph N/A   Clear
5:53 PM 79.0 °F - 68.0 °F 69% 29.70 in 9.0 mi SW 10.4 mph 21.9 mph N/A   Scattered Clouds
6:53 PM 77.0 °F - 68.0 °F 74% 29.73 in 8.0 mi SW 9.2 mph - N/A   Mostly Cloudy
7:02 PM 75.2 °F - 68.0 °F 78% 29.73 in 1.5 mi WSW 8.1 mph - 0.05 in Rain Heavy Rain
7:07 PM 75.2 °F - 69.8 °F 83% 29.74 in 1.0 mi West 9.2 mph - 0.09 in Rain Heavy Rain
7:14 PM 73.4 °F - 69.8 °F 88% 29.74 in 2.5 mi West 9.2 mph - 0.09 in Rain Light Rain
7:21 PM 73.4 °F - 69.8 °F 88% 29.74 in 7.0 mi WSW 4.6 mph - 0.09 in   Overcast
7:44 PM 73.4 °F - 68.0 °F 83% 29.74 in 9.0 mi WNW 8.1 mph - 0.10 in Rain Light Rain
7:53 PM 71.1 °F - 68.0 °F 90% 29.74 in 1.8 mi NW 15.0 mph 20.7 mph 0.29 in Rain Heavy Rain
7:56 PM 71.6 °F - 68.0 °F 88% 29.74 in 0.8 mi SSW 9.2 mph 20.7 mph 0.13 in Rain Heavy Rain
8:04 PM 71.6 °F - 68.0 °F 88% 29.74 in 1.5 mi Calm Calm - 0.17 in Rain Rain
8:06 PM 71.6 °F - 68.0 °F 88% 29.74 in 3.0 mi Variable 3.5 mph - 0.17 in Rain Light Rain
8:31 PM 71.6 °F - 68.0 °F 88% 29.74 in 9.0 mi South 3.5 mph - 0.17 in   Overcast
8:53 PM 71.1 °F - 68.0 °F 90% 29.73 in 7.0 mi Calm Calm - 0.17 in   Mostly Cloudy
9:53 PM 70.0 °F - 66.9 °F 90% 29.73 in 7.0 mi SSW 3.5 mph - N/A   Clear
10:53 PM 70.0 °F - 66.9 °F 90% 29.72 in 7.0 mi SW 3.5 mph - N/A   Clear
11:53 PM 70.0 °F - 66.0 °F 87% 29.71 in 7.0 mi SSW 3.5 mph - N/A   Partly Cloudy